RH
33 35 36 38 40 40 40 39 39 39 38 35 33 32 31 32 32 31 29 28 26 25 25 25 23 20 19 18 17 16 14 12 11 10 10 11 11 11 10 10 10 10 10 9 9 7 7 8 8 8 9 9 8 8 8 9 9 8 13 15 16 20 17 16 19 19 20 19 20 19 18 20 18 15 12 12 12 13 14 14 15 15 16 17 17 19 18 16
32 34 35 36 40 40 40 40 39 37 36 34 32 32 32 32 30 28 26 25 24 23 22 21 20 17 16 16 15 14 12 10 9 10 10 11 10 11 11 10 9 9 8 8 8 7 6 6 6 6 7 7 7 8 9 10 9 11 15 14 19 24 17 15 17 16 18 17 18 18 16 15 14 13 12 15 16 15 15 15 15 16 16 17 18 18 17 16
32 34 34 35 39 40 40 39 37 35 35 33 32 32 31 29 27 25 24 24 23 22 19 17 15 13 12 13 12 11 11 10 8 10 10 10 10 10 10 9 7 6 6 6 6 7 6 6 6 6 6 6 7 8 9 10 10 12 14 15 21 23 16 15 16 16 17 16 16 15 13 12 12 13 13 16 18 17 18 16 16 16 17 17 18 18 17 16
32 33 34 36 37 39 39 37 35 35 35 32 32 31 28 26 24 24 23 23 21 19 16 13 12 11 10 10 10 10 11 10 9 10 10 9 9 9 9 7 6 5 5 5 5 6 6 7 7 7 7 8 8 8 9 10 11 11 14 17 19 17 15 15 15 16 16 14 13 12 13 13 13 13 14 16 17 19 20 17 16 17 18 19 19 19 18 17
33 34 35 36 36 37 36 35 35 36 33 32 30 27 24 24 23 23 21 19 16 15 14 12 11 9 9 9 9 10 11 12 10 10 9 8 8 7 8 8 6 5 4 4 5 6 6 6 6 8 8 8 9 10 11 11 12 12 14 15 14 13 15 15 14 14 13 12 13 14 13 13 14 14 15 16 18 20 19 17 18 18 20 20 21 21 20 18
33 35 35 35 34 33 33 35 37 34 31 29 25 22 23 22 21 19 17 15 14 13 11 11 10 10 10 10 9 10 11 11 9 8 8 7 7 7 7 8 7 5 4 4 4 5 6 6 7 8 8 9 10 11 12 11 11 13 14 12 12 13 14 13 12 12 12 14 16 16 15 14 15 15 16 16 17 19 19 18 19 20 21 22 22 21 19 18
34 34 34 33 32 33 34 36 34 30 27 24 21 21 21 19 18 16 14 13 12 10 9 8 9 10 11 11 9 7 8 8 7 7 7 8 7 6 7 8 7 5 4 5 5 6 6 7 8 9 10 11 11 12 13 11 11 14 15 12 13 13 12 13 13 13 16 17 17 16 16 16 16 15 16 16 17 19 19 19 19 20 22 22 22 22 20 20
34 32 32 33 34 35 36 33 29 26 24 22 21 20 18 16 15 14 12 11 9 9 8 8 9 10 10 9 7 5 6 7 7 7 7 8 7 5 6 6 6 6 6 7 7 7 8 9 10 10 12 13 12 13 13 12 14 17 17 15 15 13 12 15 14 15 18 17 16 17 18 18 17 16 16 17 18 18 18 19 20 21 22 23 22 22 21 21
34 33 34 35 36 35 32 28 25 24 23 22 19 17 15 13 12 11 10 9 9 9 9 9 9 9 8 6 5 5 6 7 7 7 7 8 6 5 5 5 6 7 8 8 9 8 9 10 11 11 12 12 12 13 12 13 17 18 18 17 15 13 14 16 15 15 16 15 17 18 20 21 17 16 17 18 18 19 18 18 19 22 23 24 24 23 22 22
36 36 36 36 33 29 27 25 25 23 22 19 16 14 12 10 9 9 8 9 10 10 9 8 7 6 5 4 4 6 6 6 7 7 7 8 7 6 6 5 6 7 8 8 8 8 9 11 11 12 13 13 14 13 13 16 18 17 17 16 16 17 16 16 15 15 15 15 18 21 23 23 19 18 19 18 19 20 19 19 20 23 24 25 26 26 24 23
36 35 33 30 27 26 25 25 23 20 17 15 13 11 9 8 8 9 9 9 9 8 7 7 5 4 4 4 5 7 6 5 7 7 7 8 7 7 6 6 6 8 9 9 9 9 8 10 10 11 13 14 14 14 14 16 17 16 16 16 19 21 18 15 15 15 15 17 19 23 25 23 20 19 20 19 19 21 21 21 22 24 27 28 28 29 28 28
32 31 28 26 26 25 24 21 18 16 14 12 10 9 8 9 9 9 8 7 7 8 7 7 5 4 4 4 6 6 6 6 6 7 8 9 8 8 7 7 8 9 10 10 11 11 9 9 9 11 12 13 16 16 16 17 17 17 16 16 21 25 21 15 14 15 15 19 21 23 23 22 22 21 20 21 21 24 24 24 27 29 30 32 32 32 33 33
29 27 26 26 26 23 20 16 15 14 12 10 8 8 9 9 8 8 7 5 6 7 7 7 5 5 5 5 6 6 6 6 7 7 8 9 9 9 8 9 10 10 11 11 11 12 11 9 9 9 10 13 16 16 16 16 17 17 17 19 23 25 22 15 14 16 16 18 19 21 21 19 23 23 22 24 25 27 28 28 31 33 34 36 35 35 35 36
28 28 28 26 23 18 16 14 14 13 10 9 9 9 9 8 7 6 6 5 5 6 6 6 5 5 5 6 6 6 6 7 7 7 7 8 9 9 9 10 11 11 11 11 11 12 12 11 9 9 10 12 14 16 20 22 21 20 20 24 24 20 20 18 17 18 17 18 18 21 22 19 22 25 24 26 28 28 29 31 33 35 37 37 36 36 37 38
29 28 25 22 18 15 15 14 12 10 9 9 9 9 8 6 6 5 5 5 5 6 6 5 6 6 6 6 6 6 7 7 7 8 8 8 9 9 10 10 11 12 12 11 11 12 13 11 10 11 12 11 13 20 25 26 27 25 19 22 24 20 22 23 21 21 20 19 19 22 26 23 24 27 27 27 28 29 30 33 36 37 38 38 37 38 40 41
28 24 20 17 15 15 14 12 10 9 10 9 8 7 6 5 5 5 5 5 6 6 6 6 6 6 6 7 7 7 7 8 9 9 9 9 10 10 10 11 11 12 13 12 12 12 12 12 11 13 14 13 17 25 27 24 26 27 19 19 23 22 24 25 24 24 21 20 21 25 28 27 26 28 27 29 30 32 34 37 39 40 40 40 40 42 45 46
23 18 15 15 15 13 11 10 10 10 9 8 6 5 5 5 5 6 6 6 6 6 5 6 7 7 7 8 8 9 9 9 9 10 10 10 10 11 11 11 12 12 13 12 12 13 12 12 12 13 15 17 19 24 26 23 22 23 23 24 25 26 28 28 27 24 21 22 24 26 29 28 27 28 29 31 34 36 38 41 43 43 43 44 45 47 48 47
16 14 14 14 12 11 10 10 10 9 7 6 5 5 5 5 5 6 6 6 5 6 6 6 7 9 9 9 11 10 10 10 10 10 11 11 12 13 12 12 13 13 13 12 12 13 13 13 14 14 17 20 21 22 22 19 19 20 23 25 26 29 32 32 30 25 22 23 24 26 27 27 27 29 30 33 37 40 43 46 46 46 47 48 50 50 48 47
12 13 13 11 10 9 9 9 9 7 6 5 4 4 4 4 4 5 5 5 6 7 8 8 9 10 10 11 12 11 10 10 10 11 11 12 13 13 13 13 13 13 13 14 13 13 14 15 18 19 20 21 22 25 22 19 20 21 23 27 29 32 34 33 31 28 26 24 25 27 27 28 29 30 33 36 39 42 46 49 50 51 51 51 51 50 48 48
12 12 11 10 10 9 9 8 7 6 6 5 5 6 6 6 7 7 6 7 7 8 9 10 10 10 11 12 12 11 11 11 11 11 12 12 12 12 12 12 13 14 17 18 15 14 16 20 22 20 21 22 23 25 24 21 23 24 26 30 32 34 32 30 29 28 29 28 27 28 29 32 34 34 37 40 41 44 49 53 54 54 53 50 50 50 50 50
13 12 10 10 9 8 7 6 6 6 6 6 6 7 7 8 10 9 8 8 9 9 10 10 11 12 12 13 13 12 12 12 12 12 13 12 13 13 13 15 16 16 19 19 16 15 18 21 22 20 21 24 26 28 25 22 25 26 27 30 31 30 28 26 28 29 31 33 30 29 32 37 39 39 41 42 44 47 51 54 55 54 51 50 51 52 54 55
12 11 10 9 7 7 6 6 6 6 6 6 6 7 8 9 10 10 10 10 11 10 10 11 12 13 13 13 14 13 13 14 13 13 13 12 13 14 14 18 20 20 22 22 21 22 21 20 21 21 22 24 28 32 29 26 27 27 29 32 30 30 28 26 28 30 34 35 32 31 35 41 43 43 45 45 46 49 50 50 51 51 51 52 54 56 57 59
11 9 8 7 6 6 6 6 6 6 6 7 7 8 9 10 11 11 10 10 11 12 12 12 13 13 14 14 14 13 13 15 15 14 13 12 13 15 16 19 23 24 25 24 23 22 20 18 20 21 22 21 24 31 34 31 29 28 30 32 31 32 32 29 27 29 34 37 37 34 37 44 47 47 48 47 46 48 47 47 48 50 53 55 57 59 60 61
9 8 7 6 6 6 6 7 6 7 7 7 8 8 9 10 11 12 12 11 12 13 12 12 13 14 14 14 13 14 14 14 16 15 13 13 14 16 17 19 22 23 24 26 25 23 20 20 22 24 25 23 23 29 33 30 29 31 32 31 31 33 34 33 32 32 33 38 41 38 38 46 49 49 50 47 45 47 47 47 50 53 55 58 60 62 64 65
8 7 6 6 6 6 7 7 7 7 7 8 8 8 9 9 10 12 13 14 14 14 14 13 13 14 14 14 13 14 14 14 15 15 13 14 15 16 18 17 20 22 24 26 27 27 25 22 23 26 29 29 28 28 28 29 30 32 34 33 32 35 35 35 36 38 36 38 42 41 43 48 47 46 49 48 48 48 48 49 53 56 59 62 65 67 70 71
7 6 6 7 6 7 7 8 7 7 9 9 8 9 10 10 11 12 15 20 19 15 14 12 13 14 14 14 13 13 15 15 15 15 14 15 15 16 18 18 19 22 23 24 25 26 25 25 26 29 32 32 30 27 27 29 30 30 32 34 36 38 37 35 37 41 42 40 42 43 45 47 45 47 50 50 52 52 52 54 57 60 65 67 70 73 74 75
6 7 7 7 7 7 7 8 8 8 9 8 9 11 10 11 13 12 17 24 21 13 13 14 13 14 14 14 14 14 17 16 16 16 14 15 15 15 18 21 22 22 24 26 26 25 25 26 30 30 31 32 29 26 26 28 29 30 32 35 39 37 34 36 38 42 44 41 45 50 47 43 42 47 51 52 55 57 58 61 62 66 70 71 72 72 71 71
8 8 8 8 8 8 8 8 8 8 9 9 10 10 10 12 12 14 19 20 15 12 14 14 13 13 14 14 14 15 17 16 17 17 15 14 15 16 19 21 22 24 25 25 25 25 25 25 26 27 29 29 27 25 27 29 30 33 35 37 40 37 36 38 38 41 42 40 47 52 49 47 45 48 55 56 58 63 64 65 66 68 69 68 68 67 65 64
8 8 8 8 8 8 8 8 8 9 9 10 10 9 11 12 12 18 23 16 12 14 15 14 14 15 16 16 16 16 17 17 18 18 16 16 16 16 20 20 21 25 25 22 23 25 24 24 25 27 27 27 27 28 29 30 31 34 37 38 37 37 37 37 37 39 39 40 48 50 47 53 51 50 61 67 67 69 68 67 67 65 65 65 65 65 65 65
8 8 7 7 8 7 7 8 8 9 10 9 9 11 11 13 18 23 20 14 13 15 14 14 16 17 20 21 19 17 18 18 18 17 17 17 17 17 19 19 20 25 26 24 26 26 24 27 29 28 27 26 28 30 29 30 32 34 39 38 34 35 36 37 38 40 40 45 51 48 44 52 58 58 65 73 72 69 67 67 66 64 65 66 66 66 68 69
7 7 7 7 7 7 7 7 8 9 9 9 9 11 11 16 25 23 14 12 15 16 16 17 19 21 24 24 20 18 20 19 18 19 20 20 21 20 20 20 21 25 26 27 29 28 27 28 29 27 27 28 30 30 30 33 35 37 42 40 34 34 35 34 39 43 45 48 49 46 42 49 60 64 66 68 67 65 66 67 65 65 66 66 68 69 69 69
6 6 6 7 6 7 7 7 9 8 9 9 9 11 14 18 20 17 14 14 14 16 18 20 22 25 26 25 22 20 22 21 19 21 23 24 25 25 25 25 25 22 21 25 28 28 28 28 28 28 29 31 31 30 32 37 38 39 43 43 42 44 44 41 44 49 50 48 46 47 49 51 55 61 65 67 67 66 65 66 66 67 67 67 69 69 68 68
6 6 6 6 6 7 7 7 9 8 9 10 8 12 20 20 13 13 17 16 13 16 20 22 25 27 25 25 23 22 22 21 20 20 23 24 26 27 28 29 28 22 21 25 27 28 31 31 30 29 30 33 33 32 34 37 38 42 45 48 50 54 59 58 58 62 60 52 49 51 57 61 57 58 64 64 65 67 66 68 70 70 71 71 70 70 70 68
5 5 5 5 6 7 8 8 8 8 9 9 10 17 20 17 13 14 18 20 18 21 23 25 26 25 23 22 22 22 21 19 21 23 24 26 27 28 29 30 29 28 28 29 28 30 33 33 31 30 32 36 35 36 39 39 41 46 49 52 52 54 63 67 67 71 67 58 56 56 62 67 61 59 65 66 66 70 71 73 75 74 72 72 71 71 68 60
5 6 6 6 7 7 7 8 8 9 9 9 14 21 19 13 14 17 18 22 24 23 23 24 25 24 24 25 24 21 18 19 23 26 26 28 28 28 30 30 29 32 32 29 29 32 34 34 33 33 36 38 37 38 40 41 45 49 50 53 54 52 57 63 65 67 70 73 72 67 67 66 61 62 69 73 73 74 77 77 75 73 72 71 71 67 57 48
6 7 6 7 7 7 7 8 8 9 10 10 15 19 18 15 16 19 20 22 23 23 25 25 24 24 25 26 26 23 19 19 22 24 24 28 29 29 30 30 29 32 34 32 33 35 36 36 35 36 39 40 39 40 43 44 46 50 51 52 50 49 55 65 68 65 74 86 78 68 69 66 64 68 68 69 73 74 76 76 73 73 73 71 66 56 47 42
7 7 7 8 8 7 8 7 8 10 9 11 17 18 18 18 20 24 25 24 23 25 25 23 21 20 21 23 26 24 21 21 22 20 21 25 28 29 31 31 29 32 35 35 36 38 40 38 36 38 40 39 38 38 42 47 47 50 55 52 49 53 60 71 79 78 84 92 77 64 69 69 70 75 69 66 72 74 75 74 73 73 72 65 56 48 44 40
8 8 7 8 7 8 8 7 9 9 8 15 23 22 20 21 22 26 27 24 25 26 24 22 20 19 20 22 25 25 23 22 23 22 21 24 26 29 32 31 30 32 36 37 37 39 41 38 36 39 41 41 40 38 41 45 46 49 53 52 55 66 71 73 83 88 92 96 84 68 67 71 76 79 75 72 75 77 76 75 74 73 65 57 50 46 43 37
9 8 7 8 7 7 8 8 8 8 10 18 25 23 21 24 23 23 24 25 27 26 23 21 21 21 22 20 23 27 25 22 23 23 22 23 25 29 32 32 31 33 36 39 40 41 42 41 40 42 43 41 40 40 40 43 47 50 51 52 58 67 72 73 78 85 91 97 93 81 73 76 81 79 77 77 77 77 78 76 74 67 57 52 49 45 39 35
8 7 6 7 7 6 7 7 8 12 17 21 24 23 21 23 22 21 23 25 25 23 21 21 21 23 24 22 23 26 25 24 24 23 24 25 25 28 32 35 36 37 37 38 39 40 42 44 44 41 40 41 41 43 44 47 52 54 54 59 65 66 68 73 73 74 84 93 95 92 83 77 77 77 76 78 76 75 75 73 68 57 49 48 45 40 37 35
7 7 6 6 7 7 7 9 13 19 23 25 25 26 23 21 21 22 24 25 24 22 21 22 23 24 24 23 25 25 24 26 26 24 25 27 25 26 30 35 39 41 40 37 37 39 41 45 47 42 40 40 40 41 44 50 53 55 56 59 66 70 72 80 79 70 73 81 86 93 91 80 76 75 74 76 74 72 69 63 56 49 45 44 40 37 37 37
7 8 7 6 7 7 8 14 18 21 25 25 24 24 24 22 21 22 22 23 24 23 22 22 23 25 24 22 25 27 25 25 26 25 26 27 28 28 30 33 36 38 40 39 38 39 41 45 48 46 42 40 40 40 43 49 49 49 54 55 61 69 72 81 87 78 74 75 76 87 91 82 75 73 72 75 75 69 61 54 49 45 42 40 38 37 36 37
6 7 7 6 7 6 9 16 20 22 24 24 22 22 24 23 21 21 22 22 22 22 21 22 22 23 23 23 25 27 23 22 24 24 27 30 31 29 30 33 33 34 38 40 39 40 43 46 46 42 37 34 36 39 41 46 47 47 52 55 60 67 68 73 80 82 86 83 79 89 90 75 71 73 72 74 72 62 51 45 44 43 41 40 39 37 36 38
5 5 5 6 6 6 11 16 20 23 24 21 21 22 21 20 22 23 24 22 22 22 22 23 21 20 23 25 27 27 23 21 22 23 26 31 31 29 30 34 34 35 36 37 39 41 43 47 49 49 47 42 40 42 42 44 47 51 55 58 61 64 66 68 72 82 93 88 82 93 89 70 66 71 69 67 64 54 44 40 41 41 42 41 40 38 38 39
5 5 5 5 6 7 11 14 17 24 26 22 22 22 20 19 20 22 23 20 21 23 21 21 21 22 25 26 27 28 25 21 22 24 28 31 32 30 30 33 36 36 37 39 41 44 46 49 52 56 61 61 60 59 55 52 52 54 57 58 61 66 69 70 74 84 90 84 80 88 86 72 66 66 64 60 55 48 41 40 42 44 45 44 43 42 41 42
6 7 7 7 7 8 10 11 13 20 25 24 22 20 20 21 19 20 22 20 20 22 21 22 23 23 26 27 28 30 27 24 25 26 28 32 34 32 31 34 35 34 38 42 42 46 52 54 53 54 57 60 61 58 55 56 57 58 59 59 63 70 72 70 76 82 82 81 80 80 83 81 71 66 66 61 52 44 41 42 44 46 46 46 47 46 45 47
7 10 11 10 8 10 13 13 13 16 19 21 20 18 19 21 20 20 21 19 20 21 22 24 25 24 25 26 28 28 27 27 27 26 28 32 35 34 33 34 33 33 36 39 41 46 51 52 54 55 54 53 54 54 53 56 59 59 60 61 64 69 68 67 73 76 78 87 85 75 77 81 73 68 71 65 53 45 42 44 45 46 48 51 52 52 51 53
8 11 12 10 10 14 17 15 15 17 19 21 22 21 20 21 21 21 21 20 21 21 21 23 26 28 29 26 25 26 26 27 27 29 31 32 33 35 35 35 34 34 35 36 40 45 50 53 55 53 51 51 53 53 53 55 57 57 58 59 61 64 65 65 70 75 80 90 88 77 76 76 68 66 66 60 52 45 43 43 44 46 50 54 57 59 59 61
8 9 10 10 11 15 18 16 15 18 21 23 24 23 22 22 21 22 23 23 22 22 21 21 24 30 33 29 25 26 26 24 24 29 33 33 34 38 39 38 37 35 36 39 42 44 48 55 57 53 52 51 50 50 52 53 53 54 56 58 58 61 63 67 74 81 84 86 83 79 75 67 62 63 61 53 47 43 41 42 45 49 54 57 62 65 66 69
6 7 8 10 12 14 16 17 17 20 23 24 23 22 24 25 23 23 25 24 22 22 22 21 24 31 33 30 28 28 28 26 25 28 32 34 37 40 40 40 39 37 39 44 45 43 45 52 56 54 52 51 48 48 50 51 52 55 57 57 57 62 68 72 80 85 85 84 80 76 72 64 58 58 55 47 43 41 41 45 49 53 58 62 65 67 70 74
5 5 6 10 14 15 16 16 19 24 26 24 24 23 25 26 24 24 25 24 23 23 24 24 26 31 32 30 30 30 30 31 31 32 33 35 37 39 39 38 39 39 42 45 46 46 48 51 53 53 53 50 49 49 49 49 50 56 60 60 62 70 78 81 83 83 84 84 79 74 71 66 57 50 45 43 43 43 46 53 58 59 62 66 69 70 73 74
5 6 5 9 13 17 17 17 20 23 22 22 24 25 24 25 25 23 22 23 24 23 24 25 27 29 30 28 28 29 29 31 34 35 35 35 36 36 35 35 36 38 42 44 45 48 51 51 53 56 55 51 50 53 54 53 55 62 68 69 71 77 81 80 79 77 77 78 78 75 69 60 49 43 43 45 45 48 55 62 63 63 67 71 73 72 71 70